E1763 Weather Reports


time (UTC)temp
C
wind
direction
speed
KPH
gust
KPH
rain 1hr
cm
rain 24hr
cm
rain mn
cm
humidity
%
barometer
mb
20260905131558 11 32 0.0 0.0 0.00 0.03 0.03 96 1009.2
20260905130057 11 32 0.0 0.0 0.00 0.03 0.03 96 1009.1
20260905124551 11 32 0.0 0.0 0.00 0.03 0.03 96 1009.1
20260905123055 11 32 0.0 0.0 0.00 0.03 0.03 96 1009.3
20260905121549 11 38 0.0 0.0 0.00 0.03 0.03 96 1009.2
20260905120147 11 46 0.0 0.0 0.00 0.03 0.03 96 1009.3
20260905114621 11 26 0.0 0.0 0.03 0.03 0.03 95 1009.3
20260905113044 10 49 0.0 0.0 0.03 0.03 0.03 95 1009.3
20260905111550 10 36 0.0 0.0 0.03 0.03 0.03 95 1009.4
20260905110042 10 58 0.0 0.0 0.03 0.03 0.03 95 1009.4
20260905104539 10 24 0.0 0.0 0.00 0.00 0.00 95 1009.5
20260905103038 10 24 0.0 0.0 0.00 0.00 0.00 95 1009.7
20260905101536 11 24 0.0 0.0 0.00 0.00 0.00 95 1009.9
20260905100040 11 24 0.0 0.0 0.00 0.00 0.00 95 1009.8
20260905094533 11 24 0.0 0.0 0.00 0.00 0.00 95 1009.8
20260905093032 11 24 0.0 0.0 0.00 0.00 0.00 94 1009.9
20260905091528 11 24 0.0 0.0 0.00 0.00 0.00 94 1010.0
20260905090027 12 24 0.0 0.0 0.00 0.00 0.00 94 1010.2
20260905084523 12 319 0.0 0.0 0.00 0.00 0.00 94 1010.0
20260905083022 13 319 0.0 0.0 0.00 0.00 0.00 94 1010.1
20260905081520 13 319 0.0 0.0 0.00 0.00 0.00 94 1010.0
20260905080022 13 319 0.0 0.0 0.00 0.00 0.00 94 1010.0
20260905074519 13 319 0.0 0.0 0.00 0.00 0.00 94 1010.0
20260905073021 13 319 0.0 0.0 0.00 0.00 0.00 94 1010.1
20260905071515 13 319 0.0 0.0 0.00 0.00 0.00 94 1010.2
20260905070012 13 319 0.0 0.0 0.00 0.00 0.00 94 1010.1
20260905064514 13 24 0.0 0.0 0.00 0.03 0.00 94 1010.0
20260905063012 13 324 0.0 0.0 0.00 0.03 0.00 94 1009.9
20260905061511 13 289 0.0 0.0 0.00 0.03 0.00 93 1009.9
20260905060015 13 289 0.0 0.0 0.00 0.03 0.00 93 1009.9
20260905054509 13 22 0.0 0.0 0.00 0.03 0.00 93 1010.0
20260905053011 13 287 0.0 0.0 0.00 0.03 0.00 93 1010.0
20260905051509 13 297 0.0 0.0 0.00 0.03 0.00 93 1010.0
20260905050008 14 297 0.0 0.0 0.00 0.03 0.00 92 1010.1
20260905044507 14 308 0.0 0.0 0.00 0.03 0.00 92 1010.1
20260905043006 13 308 0.0 0.0 8.81 0.00 0.00 91 1010.1
20260905041505 14 308 0.0 0.0 0.00 0.03 0.00 90 1009.9
20260905040004 14 340 0.0 0.0 0.00 0.03 0.00 90 1009.7
20260905034502 14 240 0.0 0.0 0.00 0.05 0.00 89 1009.7
20260905033006 15 271 0.0 0.0 0.00 0.05 0.00 88 1009.5
20260905031503 15 300 0.0 1.6 0.00 0.05 0.00 87 1009.5
20260905030101 15 302 0.0 0.0 0.00 0.05 0.00 86 1009.4
20260905024600 15 232 0.0 0.0 0.00 0.08 0.00 84 1009.5
20260905023127 16 298 0.0 0.0 0.00 0.08 0.00 83 1009.4
20260905021601 16 313 0.0 1.6 0.00 0.08 0.00 81 1009.4
20260905020104 16 281 0.0 0.0 0.00 0.08 0.00 79 1009.4
20260905014602 17 30 0.0 0.0 0.00 0.08 0.00 76 1009.5
20260905013057 17 57 0.0 0.0 0.00 0.08 0.00 74 1009.5
20260905011603 18 330 0.0 8.0 0.00 0.08 0.00 72 1009.3
20260905010057 18 350 0.0 0.0 0.00 0.08 0.00 70 1009.3
20260905004555 18 293 0.0 9.7 0.00 0.08 0.00 68 1009.2
20260905003056 19 341 0.0 0.0 0.00 0.08 0.00 67 1009.0
20260905001603 20 90 0.0 0.0 0.00 0.08 0.00 67 1009.0
20260905000112 19 260 0.0 0.0 0.00 0.08 0.00 68 1009.0
20260904234554 20 314 0.0 0.0 0.00 0.08 0.00 67 1008.9
20260904233053 20 214 0.0 0.0 0.00 0.08 0.00 66 1008.9
20260904231558 20 210 0.0 8.0 0.00 0.08 0.00 67 1009.0
20260904230053 20 252 0.0 0.0 0.00 0.08 0.00 62 1009.0
20260904224556 20 61 0.0 0.0 0.00 0.08 0.00 63 1008.9
20260904223055 20 39 0.0 0.0 0.00 0.08 0.00 64 1009.0
20260904221551 21 14 0.0 0.0 0.00 0.08 0.00 60 1009.1
20260904220110 21 246 0.0 0.0 0.00 0.08 0.00 60 1009.2
20260904214550 20 60 0.0 0.0 0.00 0.08 0.00 60 1009.2
20260904213050 21 304 0.0 0.0 0.00 0.08 0.00 55 1009.1
20260904211555 21 246 0.0 0.0 0.00 0.08 0.00 57 1009.2
20260904210057 21 79 1.6 6.4 0.00 0.08 0.00 63 1009.2
20260904204547 19 294 0.0 0.0 0.00 0.08 0.00 67 1009.3
20260904203044 19 331 0.0 0.0 0.00 0.08 0.00 68 1009.3
20260904201539 18 355 0.0 0.0 0.00 0.08 0.00 73 1009.3
20260904200040 20 303 0.0 0.0 0.00 0.08 0.00 69 1009.4
20260904194636 19 187 0.0 0.0 0.00 0.08 0.00 70 1009.5
20260904193039 19 344 0.0 11.3 0.00 0.08 0.00 73 1009.7
20260904191539 18 321 0.0 9.7 0.00 0.08 0.00 81 1009.8
20260904190029 17 331 0.0 0.0 0.00 0.08 0.00 87 1009.7
20260904184524 17 26 0.0 0.0 0.00 0.08 0.00 92 1009.6
20260904183021 16 108 0.0 0.0 0.00 0.08 0.00 96 1009.6
20260904181518 15 21 0.0 0.0 0.00 0.08 0.00 97 1009.6
20260904180016 15 163 0.0 0.0 0.00 0.08 0.00 97 1009.4
20260904174529 14 292 0.0 0.0 0.00 0.15 0.00 97 1009.4
20260904173013 14 195 0.0 0.0 0.00 0.15 0.00 97 1009.4
20260904171511 14 162 0.0 1.6 0.00 0.15 0.00 97 1009.3
20260904170010 13 264 0.0 0.0 0.00 0.15 0.00 97 1009.3
20260904164508 12 264 0.0 1.6 0.00 0.15 0.00 97 1009.2
20260904163006 12 71 0.0 0.0 0.00 0.15 0.00 97 1009.1
20260904161505 12 360 0.0 0.0 0.00 0.15 0.00 97 1009.0
20260904160005 12 101 0.0 0.0 0.00 0.15 0.00 97 1009.0
20260904154504 11 22 0.0 0.0 0.00 0.18 0.00 97 1009.0
20260904153004 11 47 0.0 0.0 0.00 0.18 0.00 97 1009.1
20260904151601 11 77 0.0 0.0 0.00 0.18 0.00 97 1008.8
20260904151501 11 77 0.0 0.0 0.00 0.18 0.00 97 1008.8
20260904150100 11 14 0.0 0.0 0.00 0.18 0.00 97 1008.6
20260904144557 11 9 0.0 0.0 0.00 0.18 0.00 97 1008.5
20260904143055 11 64 0.0 0.0 0.00 0.18 0.00 97 1008.2
20260904141556 11 62 0.0 0.0 0.00 0.18 0.00 97 1008.2
20260904140053 11 74 0.0 0.0 0.00 0.18 0.00 97 1008.1
20260904134550 11 32 0.0 0.0 0.00 0.30 0.00 97 1008.0
20260904133057 11 32 0.0 0.0 0.00 0.30 0.00 97 1007.8